Amritsar, India

11:05 PM IST on April 24, 2018 (GMT +0530)
Amritsar

Weather History for VIAR - November, 2012

Change the Weather History Date:

Wednesday, November 28, 2012

  Actual Average Record
Temperature  
Mean Temperature 60 °F -  
Max Temperature 75 °F 71 °F 82 °F (2016)
Min Temperature 44 °F 45 °F 37 °F (1996)
Degree Days  
Heating Degree Days 6    
Growing Degree Days 10 (Base 50)    
Moisture  
Dew Point 49 °F    
Average Humidity 69    
Maximum Humidity 100    
Minimum Humidity 28    
Precipitation  
Precipitation 0.00 in - - ()
Sea Level Pressure  
Sea Level Pressure 29.94 in    
Wind  
Wind Speed 0 mph ()    
Max Wind Speed 4 mph    
Max Gust Speed -    
Visibility 2.1 miles    
Events Rain    
Averages and records for this station are not official NWS values.
T = Trace of Precipitation, MM = Missing Value Source: Averaged Metar Reports

Daily Weather History Graph

Daily Weather History Graph

Search for Another Location

Airport or City:

Astronomy

Nov. 28, 2012 Rise Set
Actual Time 7:09 AM IST 5:27 PM IST
Civil Twilight 6:43 AM IST 5:53 PM IST
Nautical Twilight 6:13 AM IST 6:23 PM IST
Astronomical Twilight 5:44 AM IST 6:52 PM IST
Moon 5:21 PM IST (11/28) 6:44 AM IST (11/28)
Length of Visible Light 11h 09m
Length of Day
10h 17m
Full, 100% of the Moon is Illuminated
Nov 28
Full
Nov 28
Full
Dec 6
Last Quarter
Dec 13
New
Dec 20
First Quarter

Hourly Weather History & Observations

Time (IST) Temp. Dew Point Humidity Pressure Visibility Wind Dir Wind Speed Gust Speed Precip Events Conditions
12:00 AM 55.4 °F 50.0 °F 82% 29.98 in 1.6 mi Calm Calm - N/A   Mist
12:30 AM 55.4 °F 50.0 °F 82% 29.98 in 1.6 mi Calm Calm - N/A   Mist
1:00 AM 55.4 °F 50.0 °F 82% 29.98 in 1.6 mi Calm Calm - N/A   Mist
1:30 AM 55.4 °F 50.0 °F 82% 29.95 in 1.6 mi Calm Calm - N/A   Mist
2:30 AM 54 °F 50 °F 80% 29.96 in 1 mi Calm Calm - -   Mist
2:30 AM 53.6 °F 50.0 °F 88% 29.95 in 1.6 mi Calm Calm - N/A   Mist
3:00 AM 53.6 °F 50.0 °F 88% 29.95 in 1.6 mi Calm Calm - N/A   Mist
3:30 AM 53.6 °F 50.0 °F 88% 29.95 in 1.6 mi Calm Calm - N/A   Mist
4:00 AM 51.8 °F 50.0 °F 94% 29.95 in 1.6 mi Calm Calm - N/A   Mist
4:30 AM 51.8 °F 50.0 °F 94% 29.95 in 1.6 mi Calm Calm - N/A   Mist
5:00 AM 50.0 °F 48.2 °F 94% 29.95 in 1.6 mi Calm Calm - N/A   Mist
5:30 AM 50 °F 49 °F 93% 29.96 in 1 mi Calm Calm - -   Mist
5:30 AM 50.0 °F 48.2 °F 94% 29.95 in 1.6 mi Calm Calm - N/A   Mist
6:00 AM 50.0 °F 48.2 °F 94% 29.95 in 1.6 mi Calm Calm - N/A   Mist
6:30 AM 50.0 °F 48.2 °F 94% 29.95 in 1.1 mi Calm Calm - N/A   Partly Cloudy
7:00 AM 48.2 °F 48.2 °F 100% 29.95 in 1.1 mi Calm Calm - N/A   Partly Cloudy
7:30 AM 46.4 °F 46.4 °F 100% 29.95 in 1.1 mi Calm Calm - N/A   Partly Cloudy
8:00 AM 48.2 °F 48.2 °F 100% 29.95 in 1.1 mi Calm Calm - N/A   Scattered Clouds
8:30 AM 49 °F 48 °F 96% 29.98 in 1 mi Calm Calm - -   Mist
8:30 AM 48.2 °F 48.2 °F 100% 29.95 in 0.7 mi Calm Calm - N/A   Scattered Clouds
9:00 AM 50.0 °F 46.4 °F 87% 29.98 in 0.7 mi Calm Calm - N/A   Scattered Clouds
10:00 AM 55.4 °F 50.0 °F 82% 29.98 in 1.2 mi Variable 2.3 mph - N/A   Scattered Clouds
11:00 AM 62.6 °F 51.8 °F 68% 29.98 in 2.5 mi Calm Calm - N/A   Haze
11:30 AM 65 °F 52 °F 52% 29.97 in 2 mi Calm Calm - -   Haze
11:30 AM 66.2 °F 51.8 °F 60% 29.98 in 2.5 mi Calm Calm - N/A   Haze
12:00 PM 68.0 °F 48.2 °F 49% 29.98 in 3.1 mi Variable 3.5 mph - N/A   Smoke
12:30 PM 69.8 °F 46.4 °F 43% 29.95 in 3.1 mi Variable 3.5 mph - N/A   Smoke
1:00 PM 71.6 °F 48.2 °F 43% 29.92 in 3.7 mi Variable 2.3 mph - N/A   Scattered Clouds
1:30 PM 73.4 °F 48.2 °F 41% 29.92 in 3.7 mi Variable 2.3 mph - N/A   Scattered Clouds
2:00 PM 73.4 °F 46.4 °F 38% 29.92 in 3.7 mi Variable 2.3 mph - N/A   Mostly Cloudy
2:30 PM 73.4 °F 44.6 °F 36% 29.92 in 3.7 mi Calm Calm - N/A   Scattered Clouds
3:00 PM 75.2 °F 44.6 °F 34% 29.89 in 3.7 mi Variable 2.3 mph - N/A   Mostly Cloudy
3:30 PM 73.4 °F 42.8 °F 33% 29.89 in 3.7 mi Calm Calm - N/A   Mostly Cloudy
4:00 PM 73.4 °F 42.8 °F 33% 29.89 in 3.7 mi Variable 1.2 mph - N/A   Scattered Clouds
4:30 PM 71.6 °F 44.6 °F 38% 29.89 in 2.5 mi Calm Calm - N/A   Smoke
5:00 PM 71.6 °F 44.6 °F 38% 29.89 in 2.5 mi Calm Calm - N/A   Smoke
5:30 PM 71 °F 45 °F 28% 29.87 in 2 mi Calm Calm - -   Smoke
5:30 PM 71.6 °F 44.6 °F 38% 29.89 in 2.5 mi Calm Calm - N/A   Smoke
6:00 PM 71.6 °F 44.6 °F 38% 29.89 in 2.5 mi Calm Calm - N/A   Smoke
6:30 PM 69.8 °F 48.2 °F 46% 29.89 in 2.5 mi Variable 1.2 mph - N/A   Smoke
7:00 PM 68.0 °F 50.0 °F 52% 29.92 in 2.5 mi Calm Calm - N/A   Smoke
7:30 PM 64.4 °F 51.8 °F 64% 29.92 in 2.5 mi Calm Calm - N/A   Smoke
8:00 PM 64.4 °F 51.8 °F 64% 29.92 in 2.5 mi Calm Calm - N/A   Smoke
8:30 PM 64 °F 52 °F 56% 29.92 in 2 mi Calm Calm - - Rain Light Drizzle
9:00 PM 64.4 °F 51.8 °F 64% 29.92 in 2.5 mi Calm Calm - N/A   Smoke
10:00 PM 62.6 °F 53.6 °F 72% 29.92 in 2.5 mi Calm Calm - N/A   Smoke
10:30 PM 60.8 °F 53.6 °F 77% 29.92 in 1.9 mi Calm Calm - N/A   Scattered Clouds
11:00 PM 59.0 °F 55.4 °F 88% 29.92 in 1.9 mi Calm Calm - N/A   Scattered Clouds
11:30 PM 59 °F 56 °F 87% 29.92 in 1 mi Calm Calm - -   Mist
11:30 PM 59.0 °F 55.4 °F 88% 29.92 in 1.9 mi Calm Calm - N/A   Mostly Cloudy